FW2222 Weather Reports


time (UTC)temp
C
wind
direction
speed
KPH
gust
KPH
rain 1hr
cm
rain 24hr
cm
rain mn
cm
humidity
%
barometer
mb
20260507060928 7 337 3.2 4.8 0.00 0.81 0.00 82 1095.8
20260507060026 7 337 1.6 6.4 0.00 0.81 0.00 82 1095.7
20260507054028 7 360 1.6 4.8 0.00 0.81 0.00 82 1096.0
20260507053026 7 360 0.0 3.2 0.00 0.81 0.00 81 1096.1
20260507052028 7 337 0.0 1.6 0.00 0.81 0.00 82 1096.5
20260507051027 7 337 1.6 3.2 0.00 0.81 0.00 82 1096.4
20260507045127 7 315 0.0 1.6 0.00 0.81 0.00 83 1096.9
20260507044143 7 22 0.0 0.0 0.00 0.81 0.00 83 1096.6
20260507043227 8 22 0.0 0.0 0.00 0.81 0.00 82 1096.8
20260507042226 8 22 0.0 1.6 0.00 0.81 0.00 83 1096.6
20260507041227 8 8 3.2 9.7 0.00 0.81 0.00 81 1096.2
20260507040127 8 67 1.6 4.8 0.00 0.81 0.00 81 1096.1
20260507035212 8 202 0.0 0.0 0.00 0.81 0.81 81 1096.1
20260507034212 8 157 0.0 0.0 0.00 0.81 0.81 81 1096.1
20260507033212 8 134 0.0 1.6 0.00 0.81 0.81 82 1096.3
20260507032311 8 337 0.0 0.0 0.00 0.81 0.81 82 1096.4
20260507031312 8 337 0.0 1.6 0.00 0.81 0.81 82 1096.3
20260507030329 8 337 0.0 0.0 0.00 0.81 0.81 82 1096.3
20260507025314 8 337 0.0 0.0 0.00 0.81 0.81 83 1096.2
20260507024313 8 337 0.0 0.0 0.00 0.81 0.81 83 1096.2
20260507023313 8 337 0.0 0.0 0.00 0.81 0.81 84 1096.1
20260507022316 8 292 0.0 1.6 0.03 0.81 0.81 84 1096.0
20260507020414 9 334 4.8 6.4 0.03 0.81 0.81 84 1096.1
20260507015414 9 337 0.0 0.0 0.03 0.81 0.81 84 1096.3
20260507014513 10 337 0.0 0.0 0.03 0.81 0.81 84 1095.8
20260507013612 10 320 0.0 6.4 0.03 0.81 0.81 83 1096.0
20260507010712 11 319 0.0 3.2 0.00 0.79 0.79 82 1095.5
20260507004811 11 337 0.0 0.0 0.00 0.79 0.79 82 1095.2
20260507003813 11 335 3.2 4.8 0.03 0.79 0.79 82 1094.9
20260507002814 12 21 0.0 4.8 0.03 0.79 0.79 82 1095.1
20260507001814 12 306 1.6 4.8 0.03 0.79 0.79 81 1094.8
20260507001711 12 305 0.0 3.2 0.03 0.79 0.79 81 1094.9
20260507000714 13 331 3.2 6.4 0.03 0.79 0.79 79 1094.7
20260507000613 13 332 4.8 9.7 0.03 0.79 0.79 80 1094.8
20260506234614 14 319 3.2 8.0 0.00 0.76 0.76 79 1093.9
20260506233612 14 135 0.0 0.0 0.00 0.76 0.76 79 1093.5
20260506232611 14 135 0.0 3.2 0.00 0.76 0.76 79 1093.4
20260506230613 14 142 1.6 3.2 0.00 0.76 0.76 79 1093.3
20260506225616 14 157 4.8 8.0 0.00 0.76 0.76 79 1093.2
20260506224711 14 157 3.2 4.8 0.00 0.76 0.76 78 1093.0
20260506223715 14 156 3.2 6.4 0.00 0.76 0.76 79 1093.2
20260506222812 14 134 3.2 4.8 0.00 0.76 0.76 79 1093.2
20260506221812 14 138 4.8 6.4 0.03 0.76 0.76 79 1093.1
20260506220814 14 155 8.0 12.9 0.05 0.76 0.76 78 1093.2
20260506215813 14 152 6.4 9.7 0.05 0.76 0.76 79 1093.2
20260506214813 14 144 8.0 9.7 0.05 0.76 0.76 77 1093.2
20260506213812 14 141 3.2 4.8 0.05 0.76 0.76 77 1093.3
20260506212814 14 150 4.8 4.8 0.05 0.76 0.76 79 1093.2
20260506211912 14 157 4.8 4.8 0.05 0.71 0.71 79 1093.2
20260506210912 14 150 3.2 4.8 0.03 0.71 0.71 79 1093.3
20260506205913 14 156 3.2 4.8 0.05 0.71 0.71 79 1093.4
20260506204915 14 115 3.2 4.8 0.08 0.71 0.71 79 1093.4
20260506204012 14 147 4.8 6.4 0.10 0.71 0.71 78 1093.4
20260506203013 14 160 4.8 6.4 0.10 0.71 0.71 79 1093.4
20260506202111 14 160 6.4 9.7 0.13 0.69 0.69 78 1093.5
20260506201114 14 144 6.4 11.3 0.13 0.69 0.69 79 1093.8
20260506200212 14 134 6.4 9.7 0.15 0.66 0.66 78 1093.8
20260506195213 14 156 6.4 9.7 0.18 0.66 0.66 79 1093.9
20260506193212 14 179 6.4 8.0 0.15 0.61 0.61 78 1094.2
20260506193113 14 165 8.0 11.3 0.15 0.61 0.61 79 1094.3
20260506192113 14 140 4.8 8.0 0.13 0.56 0.56 79 1094.2
20260506191211 14 154 8.0 11.3 0.15 0.56 0.56 78 1094.3
20260506184212 15 167 9.7 16.1 0.18 0.46 0.46 80 1094.3
20260506183213 15 133 3.2 6.4 0.18 0.46 0.46 80 1094.4
20260506182212 15 157 8.0 9.7 0.18 0.43 0.43 80 1094.5
20260506181212 15 160 6.4 9.7 0.20 0.41 0.41 80 1094.8
20260506175212 15 134 4.8 12.9 0.20 0.28 0.28 80 1094.9
20260506174311 15 162 3.2 4.8 0.23 0.28 0.28 80 1094.9
20260506173316 15 156 8.0 11.3 0.25 0.28 0.28 81 1095.0
20260506172312 15 154 4.8 8.0 0.25 0.25 0.25 82 1095.3
20260506171312 15 156 6.4 8.0 0.20 0.20 0.20 83 1095.8
20260506170312 15 135 0.0 0.0 0.13 0.13 0.13 83 1096.0
20260506165313 15 202 0.0 0.0 0.10 0.10 0.08 83 1096.1
20260506164311 15 247 0.0 0.0 0.05 0.05 0.05 82 1096.1
20260506163313 16 247 0.0 1.6 0.03 0.03 0.00 82 1096.0
20260506162311 16 184 1.6 4.8 0.00 0.00 0.00 80 1096.0
20260506161313 16 198 4.8 8.0 0.00 0.00 0.00 80 1096.1
20260506160312 16 166 8.0 11.3 0.00 0.00 0.00 79 1096.1
20260506155315 17 156 8.0 14.5 0.00 0.00 0.00 78 1096.1
20260506154411 17 171 6.4 9.7 0.00 0.00 0.00 78 1096.3
20260506153411 17 157 6.4 9.7 0.00 0.00 0.00 76 1096.4
20260506152413 17 166 4.8 9.7 0.00 0.00 0.00 76 1096.6
20260506151413 17 169 6.4 9.7 0.00 0.00 0.00 76 1096.7
20260506150411 16 175 4.8 8.0 0.00 0.00 0.00 78 1096.9
20260506145415 16 175 3.2 6.4 0.00 0.00 0.00 79 1097.0
20260506144413 16 176 1.6 4.8 0.00 0.00 0.00 78 1096.8
20260506141612 17 174 8.0 11.3 0.00 0.00 0.00 77 1097.0
20260506140613 17 210 4.8 11.3 0.00 0.00 0.00 76 1096.6
20260506135712 17 157 8.0 11.3 0.00 0.00 0.00 76 1096.8
20260506134713 17 135 6.4 11.3 0.00 0.00 0.00 79 1096.5
20260506132712 16 112 0.0 3.2 0.00 0.00 0.00 82 1096.5
20260506131713 15 159 4.8 8.0 0.00 0.00 0.00 82 1096.3
20260506130713 15 157 3.2 6.4 0.00 0.00 0.00 84 1096.6
20260506124715 13 247 0.0 0.0 0.00 0.00 0.00 84 1097.0
20260506122811 12 247 0.0 0.0 0.00 0.00 0.00 82 1097.5
20260506115813 10 247 0.0 0.0 0.00 0.00 0.00 81 1097.4
20260506114815 10 247 0.0 0.0 0.00 0.00 0.00 82 1097.2
20260506113911 10 247 0.0 0.0 0.00 0.00 0.00 81 1097.2
20260506111911 9 247 0.0 0.0 0.00 0.00 0.00 81 1097.2
20260506110912 9 247 0.0 0.0 0.00 0.00 0.00 80 1097.1
20260506110011 8 247 0.0 0.0 0.00 0.00 0.00 80 1097.2
20260506104111 8 247 0.0 0.0 0.00 0.00 0.00 81 1097.3
20260506103112 8 247 0.0 0.0 0.00 0.00 0.00 81 1097.2
20260506102111 7 247 0.0 0.0 0.00 0.00 0.00 82 1097.3
20260506101113 7 247 0.0 0.0 0.00 0.00 0.00 81 1097.0
20260506100210 7 247 0.0 0.0 0.00 0.00 0.00 82 1096.8
20260506100114 7 247 0.0 0.0 0.00 0.00 0.00 81 1096.8
20260506095213 8 247 0.0 0.0 0.00 0.00 0.00 82 1096.9
20260506093213 8 247 0.0 0.0 0.00 0.00 0.00 81 1096.7
20260506092213 8 247 0.0 0.0 0.00 0.00 0.00 83 1096.9
20260506091214 8 247 0.0 0.0 0.00 0.00 0.00 83 1097.0
20260506090213 8 247 0.0 0.0 0.00 0.00 0.00 83 1096.8
20260506085213 8 247 0.0 0.0 0.00 0.00 0.00 83 1097.0
20260506085127 8 247 0.0 0.0 0.00 0.00 0.00 82 1097.0
20260506084111 8 247 0.0 0.0 0.00 0.00 0.00 82 1096.9
20260506083113 8 247 0.0 0.0 0.00 0.00 0.00 83 1096.9
20260506082112 9 247 0.0 0.0 0.00 0.00 0.00 83 1097.1
20260506070113 10 247 0.0 0.0 0.00 0.00 0.00 84 1097.3